• MPC Preparation (Info)

  • MPEC 2010-G92 : 2010 GR33

    The following Minor Planet Electronic Circular may be linked-to from your own Web pages, but must not otherwise be redistributed electronically.

    A form allowing access to any MPEC is at the bottom of this page.


    Read MPEC 2010-G91 Read MPEC 2010-G93


    M.P.E.C. 2010-G92                                Issued 2010 Apr. 12, 11:32 UT
    
         The Minor Planet Electronic Circulars contain information on unusual
             minor planets and routine data on comets.  They are published
       on behalf of Commission 20 of the International Astronomical Union by the
              Minor Planet Center, Smithsonian Astrophysical Observatory,
                              Cambridge, MA 02138, U.S.A.
    
                 Prepared using the Tamkin Foundation Computer Network
    
                                  MPC@CFA.HARVARD.EDU
           URL https://www.minorplanetcenter.org/iau/mpc.html  ISSN 1523-6714
    
                                       2010 GR33
    
    Observations:
         K10G33R* C2010 04 11.47552 17 28 25.50 +09 30 30.2          20.4 V EG092G96
         K10G33R  C2010 04 11.48083 17 28 24.49 +09 30 33.1          21.6 V EG092G96
         K10G33R  C2010 04 11.48622 17 28 23.41 +09 30 35.0          21.0 V EG092G96
         K10G33R  C2010 04 11.49162 17 28 22.36 +09 30 37.1          21.3 V EG092G96
         K10G33R  C2010 04 12.33011 17 25 51.65 +09 35 51.8          20.8 R EG092H01
         K10G33R  C2010 04 12.33664 17 25 50.39 +09 35 54.5          21.1 R EG092H01
         K10G33R  C2010 04 12.34264 17 25 49.23 +09 35 56.9          21.2 R EG092H01
         K10G33R  C2010 04 12.35121 17 25 47.59 +09 36 00.2          21.6 R EG092H01
         K10G33R IC2010 04 12.37032317 25 43.11 +09 36 04.3                 EG092H21
         K10G33R IC2010 04 12.38695317 25 39.90 +09 36 10.4          20.7 V EG092H21
         K10G33R KC2010 04 12.40452 17 25 36.68 +09 36 16.6          21.3 R EG092H36
         K10G33R KC2010 04 12.43429 17 25 30.92 +09 36 26.5          21.1 R EG092H36
    
    Observer details:
    G96 Mt. Lemmon Survey.  Observer S. M. Larson.  Measurers J. D. Ahern,
        E. C. Beshore, A. Boattini, G. J. Garradd, A. R. Gibbs, A. D. Grauer,
        R. E. Hill, R. A. Kowalski, S. M. Larson, R. H. McNaught.  1.5-m reflector
        + CCD.
    H01 Magdalena Ridge Observatory, Socorro.  Observers W. H. Ryan, E. V. Ryan.
        Measurer W. H. Ryan.  2.4-m f/8.9 reflector + CCD.
    H21 Astronomical Research Observatory, Westfield.  Observer R. Holmes.
        Measurer S. Foglia.
    H36 Sandlot Observatory, Scranton.  Observer G. Hug.  0.56-m reflector + CCD.
    
    Orbital elements:
    2010 GR33                                                Earth MOID = 0.0589 AU
    Epoch 2010 Mar. 25.0 TT = JDT 2455280.5                 MPC
    M  15.86863              (2000.0)            P               Q
    n   0.43708757     Peri.  340.61295     -0.79478031     -0.60551922
    a   1.7195854      Node   161.93684     +0.57277446     -0.77065581
    e   0.4856210      Incl.    7.57510     +0.20063317     -0.19858527
    P   2.25           H   22.6           G   0.15
    From 12 observations 2010 Apr. 11-12.
    
    Ephemeris:
    2010 GR33                a,e,i = 1.72, 0.49, 8                   q = 0.8845
    Date    TT    R. A. (2000) Decl.     Delta      r     Elong.  Phase     V
    2010 04 04    17 52.80   +08 23.5    0.169    1.052   103.6    67.4    21.2
    2010 04 14    17 20.84   +09 45.4    0.207    1.118   119.1    51.6    21.3
    2010 04 24    16 52.59   +10 04.2    0.248    1.188   132.6    38.5    21.5
    2010 05 04    16 27.18   +09 24.4    0.296    1.260   144.0    28.1    21.7
    2010 05 14    16 05.60   +07 55.8    0.354    1.332   151.5    21.2    22.0
    
    Timothy B. Spahr             (C) Copyright 2010 MPC           M.P.E.C. 2010-G92
    

    Read MPEC 2010-G91 Read MPEC 2010-G93


    MPEC number:

    Enter an MPEC number in one of the following forms:

    • 1997-B01 (the full form)
    • J97B01 (the packed version of the full form)
    • B01 (the abbreviated form)